Tracking 17950 objects as of 25-February-2017
HD Live streaming from Space Station
objects crossing your sky now

ARIANE 5 R/B

Track ARIANE 5 R/B now!


NORAD ID: 29275
Int'l Code: 2006-033D
Perigee: 263.3 km
Apogee: 33,302.1 km
Inclination: 6.0 °
Period: 584.4 minutes
Semi major axis: 23153 km
RCS: 37.7588 m2 (large)
Launch date: August 11, 2006
Source: France (FR)
Launch site: FRENCH GUIANA (FRGUI)

Note: This is a ROCKET BODY
Your satellite tracking list
Your tracking list is empty





NASA's NSSDC Master Catalog

Two Line Element Set (TLE):
1 29275U 06033D   17054.65193131  .00002217  00000-0  69523-3 0  9993
2 29275   5.9958 258.5490 7134672 225.6019  47.1162  2.46418404 91050
Source of the keplerian elements: AFSPC